Theta_e
312 312 312 311 312 311 311 312 313 314 316 317 318 318 318 317 318 319 320 325 325 325 326 327 325 324 318 305 307 320 327 332 324 319 314 314 312 310 305 305 304 303 302 302 303 302 302
312 312 311 311 310 309 310 312 313 315 317 317 317 317 317 318 317 319 321 324 325 325 326 326 325 322 310 301 317 322 323 323 320 318 316 314 312 314 308 306 304 305 302 303 303 303 300
311 312 311 311 310 309 309 311 313 314 315 316 316 315 316 317 315 317 318 324 325 324 325 326 324 316 306 306 321 323 322 320 322 320 315 318 318 314 311 304 309 306 301 302 301 298 298
311 311 311 311 309 308 309 311 312 312 312 313 314 314 314 316 314 318 319 323 323 324 325 325 323 312 302 311 324 320 319 319 322 320 318 319 319 311 309 310 307 304 304 297 299 298 297
310 310 311 310 309 308 310 310 311 312 311 311 312 313 312 313 312 314 321 322 322 324 325 324 313 310 301 318 314 317 318 314 316 317 318 318 315 308 308 304 301 301 296 299 302 300 297
309 310 310 309 308 308 309 310 310 310 310 311 311 312 311 310 313 319 321 322 322 323 322 318 314 303 301 305 313 314 317 318 313 311 306 306 307 304 305 303 293 293 297 298 300 300 297
309 309 310 309 307 308 308 308 309 309 310 310 310 310 310 310 312 316 320 317 309 308 312 304 304 305 303 311 314 311 312 313 311 305 296 299 299 299 302 305 302 300 300 299 298 303 298
308 309 310 308 307 307 307 308 308 308 309 308 309 311 311 310 313 316 318 308 309 312 301 305 308 301 307 311 303 307 310 303 303 296 297 296 295 302 306 303 301 301 299 300 301 296 296
308 308 308 307 306 307 306 307 307 307 308 308 308 310 310 310 312 312 313 312 313 311 298 297 303 301 305 308 303 303 306 303 299 295 296 295 296 301 301 296 295 296 298 296 295 293 294
307 307 307 306 306 305 304 305 307 306 307 307 308 309 309 309 304 309 309 313 313 313 291 289 295 297 301 305 299 307 308 303 298 295 296 295 296 297 297 294 296 289 294 293 292 291 291
307 307 305 305 304 304 303 303 305 305 306 306 307 308 309 309 304 308 313 314 312 308 280 288 293 304 303 301 299 298 301 302 297 295 296 293 293 295 294 295 299 292 297 294 292 290 289
306 307 304 305 304 303 305 304 304 304 304 306 306 307 309 306 305 304 314 313 307 290 280 283 292 291 294 295 297 296 295 299 301 296 297 295 298 297 298 297 294 295 293 292 290 289 285
305 306 306 305 303 304 304 303 304 303 304 305 306 307 306 308 300 308 310 306 287 284 287 283 284 291 292 291 293 296 293 291 289 286 288 291 292 294 296 293 295 294 291 283 282 282 284
306 302 301 304 303 303 303 303 304 304 303 304 306 306 306 305 309 307 306 294 283 284 285 290 289 289 288 291 292 294 291 290 293 293 288 285 282 289 294 295 292 292 293 284 279 280 285
304 305 301 304 303 303 303 303 304 302 302 304 305 303 303 305 308 306 288 284 285 287 289 288 288 285 285 288 291 290 291 291 293 293 290 287 285 291 294 295 295 290 288 290 284 279 281
304 303 301 304 304 304 303 303 303 302 303 304 300 300 299 306 307 299 286 287 285 292 293 292 285 288 283 286 288 291 289 295 292 293 295 291 283 288 290 296 295 294 296 286 287 280 278
303 303 302 302 304 304 304 304 303 302 303 303 299 293 297 306 301 287 284 287 287 293 295 292 288 287 288 287 290 290 290 292 294 291 293 292 288 284 290 290 289 290 289 290 291 287 282
302 303 303 302 304 304 304 304 303 302 303 299 295 286 296 302 286 285 286 288 292 293 295 290 294 291 289 289 288 288 288 291 295 293 290 292 287 283 286 289 292 293 291 291 286 283 285
302 302 301 302 304 305 304 304 303 302 303 296 288 288 297 299 283 284 288 289 292 291 291 291 290 292 293 289 285 290 290 295 296 294 292 290 286 281 282 287 288 289 290 293 291 288 285
302 302 302 303 304 304 303 303 302 304 302 296 289 284 288 291 287 286 285 286 287 294 290 291 291 293 291 289 290 288 288 290 295 295 295 294 287 286 281 285 288 285 288 291 291 285 286
301 302 302 304 304 304 304 303 303 304 301 296 289 284 286 283 285 287 288 287 287 286 291 292 289 291 291 287 288 287 288 288 293 294 293 293 286 287 287 288 289 288 287 288 288 290 286
301 301 303 303 303 303 304 302 303 303 301 291 286 285 287 286 287 288 286 285 287 288 289 289 289 291 292 288 290 286 289 290 289 291 292 291 287 287 283 286 288 286 288 289 289 290 290
301 301 302 302 303 303 303 303 302 302 297 290 292 292 289 285 285 285 286 286 289 291 291 293 292 291 289 292 295 294 294 293 292 290 290 289 287 285 283 285 286 283 286 288 289 291 291
300 300 300 300 302 302 302 302 302 301 296 292 291 290 286 282 286 287 288 289 288 291 289 290 293 291 291 296 296 294 291 291 292 291 293 288 287 287 280 282 277 288 293 292 290 291 293
300 300 300 299 299 301 301 302 302 300 297 293 292 290 286 281 284 285 287 289 291 292 288 290 289 291 296 294 288 286 285 285 282 286 289 292 289 283 282 282 286 288 287 288 287 288 293
300 300 299 299 299 299 300 301 301 300 298 293 291 291 289 284 282 286 286 288 288 285 287 286 291 293 294 289 286 283 281 282 281 283 286 289 292 287 279 280 277 287 290 292 293 284 295
300 300 299 299 299 298 300 301 301 300 298 294 291 292 290 284 286 286 284 286 288 289 286 286 287 289 290 288 285 285 283 284 280 279 281 284 285 283 283 283 286 289 289 294 284 287 292
299 299 300 300 299 298 299 300 301 300 298 295 291 292 290 286 286 287 287 286 286 289 287 286 289 288 287 286 286 286 284 282 283 285 284 284 283 283 284 282 280 289 288 288 293 292 292
298 298 299 299 299 299 299 299 300 299 298 295 291 292 292 286 284 288 289 289 288 287 288 287 288 287 292 287 286 286 282 281 283 281 286 284 289 286 287 287 290 290 292 290 290 292 292
Wind_Speed
23 22 21 20 17 16 16 18 21 22 21 19 18 27 25 22 21 16 24 31 29 29 26 26 24 23 19 15 8 1 20 16 13 12 13 12 15 7 9 8 10 9 11 5 2 3 2
23 23 21 19 17 15 16 18 19 22 19 16 13 20 20 24 17 22 17 32 30 29 28 27 25 25 20 20 3 13 20 18 11 10 9 7 8 6 8 8 7 3 6 3 2 5 1
23 23 21 21 17 16 15 15 16 13 10 14 13 17 18 19 14 17 19 32 31 29 30 28 26 19 17 14 9 18 19 12 5 5 7 4 2 6 12 9 5 5 6 4 4 2 3
23 24 23 20 17 15 14 14 12 2 5 6 12 12 15 21 8 14 24 31 29 29 30 29 28 15 10 4 14 18 14 12 7 8 4 5 8 8 3 12 5 6 1 7 3 5 3
22 23 24 22 17 14 11 12 11 9 9 7 1 10 5 7 10 15 31 30 29 29 30 30 21 10 7 11 16 18 19 15 9 7 4 5 4 4 4 10 6 1 5 14 9 2 4
20 23 25 22 18 15 8 10 10 6 4 7 6 8 6 1 9 15 30 30 27 28 23 15 10 9 4 18 14 16 12 21 9 13 7 2 4 6 7 9 8 7 7 4 12 3 3
19 22 22 24 19 16 11 8 7 6 6 3 0 9 7 3 10 17 26 19 16 15 20 6 19 9 20 19 19 16 21 13 12 4 6 5 4 11 20 17 11 11 10 12 4 3 1
20 19 21 24 20 17 14 9 8 6 5 3 1 8 6 1 10 14 21 19 37 14 22 2 25 4 16 22 15 21 18 12 15 15 9 5 6 6 10 11 12 15 13 11 5 5 6
20 20 19 22 21 18 15 14 11 9 5 4 1 4 6 4 7 8 21 26 15 9 9 2 10 14 25 22 19 22 20 12 18 15 13 10 6 9 14 12 13 7 14 10 3 3 3
19 17 15 25 20 18 15 14 13 9 7 4 2 2 8 9 3 9 20 21 16 6 6 5 7 5 11 16 10 13 15 14 6 20 14 4 6 14 10 8 13 7 6 9 7 3 5
17 14 18 20 18 16 14 16 13 10 9 5 4 2 9 6 2 9 16 21 12 4 9 15 6 5 13 20 24 12 2 4 17 15 7 7 13 17 16 10 8 4 8 5 1 2 2
15 19 27 24 20 17 15 15 11 10 9 8 6 5 11 5 2 3 13 18 8 14 8 6 5 11 15 6 15 8 6 6 4 13 1 6 3 12 9 11 5 13 8 7 3 2 8
10 18 21 23 20 18 16 14 13 10 9 8 6 7 8 7 6 3 11 14 10 11 9 10 9 13 19 16 12 20 17 11 9 11 9 4 8 4 12 15 10 5 12 4 2 5 8
16 16 17 23 20 19 17 14 14 13 10 10 7 3 7 3 4 4 5 10 10 11 7 8 14 17 10 17 11 20 21 12 9 8 8 8 6 10 9 16 12 15 10 4 7 6 3
13 16 6 22 20 19 18 15 13 10 7 7 6 3 3 5 3 4 4 10 9 18 13 17 20 12 6 7 10 10 21 23 13 10 9 11 6 6 13 8 15 9 9 4 1 3 2
14 12 9 14 22 19 18 17 13 8 6 7 3 4 3 7 5 4 3 7 6 14 19 30 15 9 12 17 18 17 20 21 16 12 4 11 8 7 6 13 4 12 15 6 4 5 6
18 20 18 9 21 20 17 16 14 10 6 8 2 3 3 7 7 3 3 4 8 19 26 23 20 18 17 27 19 26 30 9 18 15 4 8 5 6 9 14 18 11 12 6 5 5 4
11 17 14 10 22 20 18 18 14 11 8 4 2 3 1 4 2 1 2 10 12 22 15 6 10 10 25 28 17 15 26 9 18 19 14 5 7 8 22 3 6 17 13 16 7 7 5
11 16 11 15 16 21 19 16 13 12 10 3 3 1 3 0 4 2 2 4 12 26 18 13 11 5 19 21 11 13 13 13 25 26 23 12 6 8 7 5 3 18 12 18 6 1 8
10 16 16 13 22 20 18 15 12 11 9 3 2 3 3 2 3 2 4 4 12 9 5 7 13 19 22 17 6 14 13 8 20 19 10 9 4 9 13 11 13 15 24 20 18 7 14
10 11 16 19 19 19 17 15 12 11 10 2 1 1 1 5 5 5 4 5 14 10 2 9 7 19 17 10 11 10 9 6 11 13 7 7 8 7 3 6 11 15 19 22 23 28 17
12 11 17 16 17 17 16 14 11 9 9 3 4 4 1 2 7 8 4 6 15 5 7 13 15 24 19 16 20 14 15 11 14 9 17 4 3 6 1 5 5 7 17 24 29 29 24
14 14 15 14 15 17 16 14 11 10 4 2 1 2 0 1 3 8 7 5 12 6 2 5 21 21 11 9 13 16 9 11 13 17 17 11 7 6 11 4 5 4 26 24 24 29 31
12 14 13 12 12 15 15 11 8 6 2 2 1 2 1 2 3 5 6 11 16 10 3 4 14 13 5 19 19 13 15 8 15 11 14 17 12 3 4 5 12 12 15 18 22 18 23
14 15 15 12 4 11 13 11 8 7 3 3 1 2 2 3 2 5 4 9 8 4 2 2 4 4 16 9 7 8 5 5 3 2 8 8 10 6 7 10 12 13 3 10 12 19 20
16 17 11 14 9 9 8 10 11 11 8 4 3 1 1 4 3 3 3 4 5 5 2 3 4 1 2 5 4 7 7 6 6 2 2 4 13 8 6 15 20 6 14 12 8 26 11
17 19 17 12 14 8 7 10 8 8 5 4 3 2 2 4 3 3 1 2 2 6 4 4 4 1 3 4 5 5 5 3 9 13 8 7 7 18 9 11 6 5 6 17 15 6 5
16 14 15 17 13 11 7 10 11 10 6 4 2 3 1 4 4 7 5 1 1 2 7 5 6 3 2 6 5 6 5 8 5 9 11 11 11 10 6 13 21 8 8 18 7 0 3
14 11 14 16 12 12 11 9 10 8 8 4 3 2 3 7 3 3 4 7 5 4 2 1 1 6 5 5 4 5 4 6 8 7 3 10 9 8 13 9 1 9 3 4 2 2 3
Wind_Direction
241 239 239 239 233 242 252 262 267 268 264 251 224 209 209 217 234 220 264 205 185 176 168 160 160 152 159 196 223 261 156 157 159 164 171 168 170 148 154 149 155 199 168 150 162 330 210
243 235 236 227 227 240 253 263 267 270 257 231 209 218 225 212 215 229 256 194 183 173 165 162 161 154 176 196 108 157 153 159 159 152 150 181 187 179 122 150 179 132 151 156 70 340 50
242 233 226 224 225 240 252 262 262 265 248 217 200 213 220 215 242 242 265 188 181 169 164 163 161 167 188 180 157 155 150 161 126 150 140 160 172 202 139 123 128 102 179 203 185 152 67
243 233 224 219 226 239 249 248 241 163 95 246 216 206 215 214 213 261 230 182 174 168 163 163 162 172 182 118 147 150 154 136 100 76 101 129 109 91 47 119 97 207 239 212 138 140 98
244 235 222 216 217 228 246 234 219 228 207 179 232 199 185 252 283 290 199 176 170 167 161 157 170 177 167 138 161 159 159 151 111 109 93 107 63 82 131 131 125 191 188 220 217 45 125
235 237 222 209 207 214 232 215 191 192 174 180 178 206 191 298 296 218 177 166 169 166 149 155 192 105 222 179 149 156 152 141 138 124 93 107 141 144 158 170 186 155 198 207 220 147 178
227 239 220 198 193 202 206 204 169 174 182 153 177 198 179 246 292 271 165 153 162 174 182 178 175 181 135 140 134 166 150 130 139 143 129 191 153 194 174 176 146 159 189 214 183 185 185
222 228 215 202 189 193 202 194 190 193 173 157 243 206 165 196 243 270 167 177 184 150 160 167 169 73 140 144 142 160 162 140 165 164 132 142 185 161 165 153 152 165 181 208 216 160 207
220 224 209 204 187 182 202 203 205 196 206 130 152 208 193 214 284 267 170 181 131 125 131 46 155 155 154 150 159 163 169 141 167 159 172 160 152 144 154 144 140 178 197 179 183 185 216
221 230 197 197 183 178 191 209 193 190 205 165 180 75 165 97 335 234 170 148 149 131 122 185 178 190 153 133 125 155 171 148 169 173 157 142 158 143 151 162 153 156 146 120 107 191 239
222 199 163 199 179 177 187 202 171 184 194 185 150 90 157 174 272 188 150 152 151 93 183 154 186 350 161 159 130 182 143 51 165 156 176 129 152 159 167 175 188 127 141 138 191 234 292
219 181 172 180 174 171 171 163 170 169 184 193 165 164 159 136 104 283 162 153 134 171 174 150 126 168 147 156 160 132 126 72 88 140 143 125 147 171 173 153 126 141 99 45 52 339 255
187 151 188 167 170 162 175 171 172 176 189 186 189 180 170 155 196 2 200 164 164 204 143 151 148 164 151 147 137 165 154 140 149 143 168 142 158 137 154 135 137 111 135 102 178 200 244
179 150 211 163 159 166 165 174 172 176 186 174 176 168 185 186 91 42 190 176 175 138 165 142 134 131 152 136 141 166 147 163 183 148 128 152 188 179 168 175 171 168 172 150 189 200 243
186 158 145 162 159 162 168 173 175 173 180 176 160 188 180 158 193 85 335 185 152 155 146 133 132 134 127 91 129 134 187 176 174 182 151 163 138 146 180 135 145 164 204 121 58 113 269
168 150 210 184 167 163 164 166 169 174 175 175 191 171 123 139 101 87 231 173 96 140 146 144 138 162 145 163 149 168 177 198 175 180 195 167 123 211 152 148 176 187 155 168 204 209 236
163 172 184 214 175 167 172 175 169 167 168 162 174 155 353 147 64 84 263 144 126 153 151 156 144 152 174 164 170 180 182 171 169 167 149 152 108 150 161 204 174 158 181 202 177 221 244
154 162 161 162 179 172 168 170 169 163 155 130 128 187 316 195 83 187 230 141 135 154 158 115 147 143 171 162 165 170 188 144 161 160 169 167 109 147 192 89 236 206 197 185 197 182 235
150 149 147 171 187 170 164 164 162 166 175 143 104 126 345 46 190 194 274 153 151 159 162 157 151 158 164 166 137 190 175 189 171 172 175 165 127 113 147 222 190 210 198 204 200 72 202
145 148 149 182 173 163 155 155 162 168 159 86 127 134 54 74 138 140 135 170 152 165 116 102 133 126 141 162 107 175 156 182 189 183 114 126 147 181 186 195 157 199 202 201 204 210 216
138 138 144 162 159 153 154 152 160 161 142 106 356 146 11 157 190 156 165 170 162 162 67 139 135 153 152 151 168 171 149 123 171 169 144 158 193 200 206 148 176 196 198 193 202 225 215
140 130 143 151 156 153 151 142 152 155 131 91 150 150 167 97 159 166 147 170 180 151 162 186 162 163 161 156 189 160 162 169 166 179 184 208 164 146 116 145 171 184 196 201 210 221 229
153 131 117 120 144 148 142 146 151 159 99 112 139 60 239 20 168 151 182 162 211 149 331 143 150 158 167 159 155 145 150 144 148 167 178 180 155 127 217 109 109 287 215 200 211 218 219
161 141 122 98 120 124 125 129 140 152 111 114 151 117 116 148 194 166 141 177 208 242 172 155 168 147 135 112 93 70 54 73 149 172 183 190 184 91 111 131 221 261 190 206 212 221 228
170 154 138 121 118 122 115 114 115 115 107 96 105 95 131 118 74 86 138 167 179 149 48 81 32 8 146 86 93 84 38 75 339 342 208 209 164 155 171 212 275 257 173 169 188 245 223
169 149 138 145 144 84 114 113 107 105 96 84 72 317 115 124 48 39 109 199 148 134 91 41 29 73 344 94 105 133 174 146 176 100 346 178 186 173 159 214 233 112 174 149 140 262 212
152 154 144 142 143 132 111 108 102 94 79 103 75 357 95 102 51 17 104 155 131 126 106 123 137 129 314 106 112 146 170 138 163 161 165 152 165 201 200 226 261 234 175 155 193 285 199
128 130 148 143 141 133 117 107 99 92 74 59 71 0 68 89 51 18 2 49 50 163 146 170 108 300 29 101 156 170 160 192 151 150 173 166 166 196 204 229 248 159 164 184 220 124 143
123 130 141 142 138 139 113 98 90 80 72 78 79 358 2 68 78 7 30 19 14 351 72 289 105 152 158 133 187 142 145 159 146 183 189 192 199 172 196 209 108 187 124 62 59 145 150